Wind_Speed
4 5 5 5 5 5 5 5 5 5 5 5 5 5 5 5 5 5 6 7 7 8 8 9 9 8 8 8 8 9 10 10 11 11 12 12 13 13 13 13 12 12 12
5 6 5 5 6 7 6 6 5 5 5 5 5 6 5 5 6 5 6 7 8 9 9 9 9 9 9 9 9 9 9 10 10 10 11 11 12 12 13 13 14 13 14
6 7 6 6 6 7 7 7 6 6 6 6 6 6 6 6 6 6 6 6 8 9 9 9 9 9 10 10 10 10 9 9 10 11 11 12 12 12 12 13 15 15 15
7 8 8 8 8 8 9 9 8 8 7 6 6 7 7 7 7 7 7 7 8 8 8 8 9 9 11 11 11 11 11 11 11 12 13 13 13 13 12 13 14 15 16
8 8 9 9 9 9 10 9 10 9 8 8 7 7 8 8 8 8 9 9 9 9 9 10 10 10 10 11 12 12 12 12 13 13 14 14 15 14 13 13 14 16 17
9 9 9 9 10 10 11 11 10 10 9 9 9 9 9 9 9 9 10 11 11 11 11 11 11 11 11 12 13 13 13 14 14 15 15 15 15 15 14 15 16 17 18
10 10 10 10 11 11 12 11 11 11 10 10 10 11 10 10 10 10 11 12 12 12 12 12 13 13 13 13 13 14 15 15 16 16 16 16 16 17 17 17 17 18 19
11 11 11 11 11 12 12 12 12 11 11 11 12 12 12 12 12 12 13 13 13 13 14 14 14 15 15 15 16 16 16 17 17 17 17 17 17 17 17 18 19 20 20
12 12 12 12 11 12 12 13 12 12 12 13 13 13 13 14 14 15 15 15 15 15 15 15 15 16 16 17 17 17 18 19 19 19 19 19 19 20 20 21 21 21 22
14 14 13 13 13 13 14 14 14 13 14 14 15 15 15 15 15 16 16 16 17 17 16 17 17 17 18 19 19 19 19 20 20 20 20 20 21 22 23 24 24 24 24
16 16 15 15 15 15 16 16 14 14 15 15 15 15 16 16 16 18 19 19 19 18 18 18 19 19 19 20 21 21 21 21 22 22 22 22 23 24 24 25 25 26 26
18 18 17 17 17 17 17 17 16 15 16 16 17 17 18 17 18 19 20 20 20 20 20 20 21 21 21 21 22 22 23 22 23 23 23 24 25 26 26 27 27 27 27
20 20 19 18 18 18 18 18 18 18 18 18 18 19 20 20 20 21 21 21 21 22 22 23 22 23 22 22 23 23 24 24 24 25 25 26 27 27 28 28 28 28 29
20 20 20 19 19 19 19 20 20 21 21 21 21 21 22 22 23 23 23 23 23 23 24 24 24 24 24 24 24 25 25 26 26 27 28 28 28 29 29 29 29 30 30
22 22 22 21 21 21 21 21 22 23 23 23 24 24 25 25 25 25 25 24 24 25 25 26 26 25 25 26 26 26 26 27 27 29 29 30 30 30 30 30 31 31 31
24 24 23 22 22 22 22 22 24 24 25 25 25 25 26 26 27 27 27 27 27 26 27 26 27 27 27 27 27 27 27 28 28 28 29 30 30 31 31 31 31 32 32
25 26 26 25 24 24 24 25 26 27 27 27 27 27 28 28 28 28 29 29 29 29 28 27 28 27 27 27 27 28 28 29 28 29 29 30 30 32 32 31 32 32 33
28 28 28 27 27 27 27 27 28 29 29 29 29 28 29 29 29 30 31 31 31 31 30 29 29 29 28 28 28 29 29 29 29 30 29 30 30 31 31 32 32 32 33
30 30 30 30 30 30 30 30 30 30 30 29 30 30 30 29 29 29 30 31 31 31 30 30 30 30 29 29 29 30 30 30 30 30 30 30 31 31 32 32 32 33 33
32 32 32 32 32 32 32 32 32 31 31 31 31 31 31 30 29 30 30 30 30 30 30 30 30 29 29 28 28 29 29 30 30 30 31 31 32 32 33 33 33 33 34
34 33 33 34 34 34 34 34 35 34 33 32 32 32 32 31 31 30 30 30 30 30 30 30 29 28 28 28 28 29 30 30 30 30 31 32 32 32 33 33 33 34 34
34 34 35 35 36 36 35 35 35 35 34 33 33 34 33 33 32 32 32 31 31 30 29 29 28 28 29 29 29 30 30 31 31 31 32 32 32 32 33 33 33 34 35
34 34 35 35 36 35 34 34 35 35 35 35 35 35 35 34 34 33 33 32 31 31 30 30 29 29 30 31 31 31 31 32 32 32 33 33 33 33 33 32 33 33 34
34 34 35 35 34 34 34 34 34 35 35 35 36 36 35 35 35 34 34 33 32 32 32 32 31 31 31 32 32 32 33 33 33 33 33 33 33 32 32 32 33 33 33
34 33 33 34 34 35 35 35 35 36 36 36 36 36 36 36 35 35 34 34 34 33 33 33 32 32 32 32 33 34 34 33 34 33 33 32 32 32 32 33 33 33 33
33 34 34 35 35 36 36 36 36 36 37 37 37 36 36 36 36 35 35 35 34 34 34 33 33 32 32 33 33 33 33 33 32 33 33 33 33 32 32 32 32 32 32
Wind_Direction
356 348 338 342 346 338 332 328 330 332 331 332 337 330 322 317 308 294 290 286 288 290 286 281 280 283 279 278 276 275 272 270 271 271 269 268 266 264 258 259 266 270 274
331 334 335 333 333 329 329 326 323 322 322 326 329 328 319 313 315 312 304 301 293 290 289 282 277 278 276 276 279 282 279 271 269 270 272 272 269 267 265 265 266 268 270
323 326 325 322 323 326 328 325 319 315 309 314 318 318 318 316 316 316 313 307 307 300 288 282 277 276 275 276 279 281 282 279 274 272 272 275 271 268 271 273 271 271 270
321 323 324 324 319 321 322 324 319 318 316 314 314 314 313 314 310 312 312 310 312 308 301 291 279 278 277 275 276 278 278 281 281 277 277 279 275 273 270 269 272 273 274
317 318 319 321 322 323 321 321 318 316 315 312 308 309 310 312 309 308 311 313 312 309 307 297 287 281 278 276 274 276 279 279 279 278 280 286 282 279 273 270 272 275 276
311 312 314 317 319 319 316 315 314 314 310 305 301 303 306 308 309 308 309 310 309 308 306 300 292 287 285 282 276 277 276 276 277 280 280 283 285 283 278 277 274 275 278
308 309 309 309 312 312 312 311 311 308 304 298 297 297 300 302 303 307 309 308 306 305 306 300 296 290 290 291 285 282 280 279 280 281 281 283 283 284 280 281 280 278 278
298 299 302 302 304 306 308 310 309 307 303 299 297 295 295 297 299 302 306 306 306 304 301 297 295 291 289 290 286 282 282 282 282 283 284 283 284 286 285 282 280 279 278
293 295 295 295 299 303 304 307 307 303 298 296 295 296 295 295 298 300 301 302 303 302 300 296 292 290 288 286 285 283 283 282 282 283 284 283 284 286 286 286 284 282 282
290 292 292 291 292 296 298 302 302 303 300 297 295 296 296 293 298 300 300 300 301 301 299 296 291 289 287 286 284 282 282 281 281 281 282 282 283 284 285 286 284 284 283
286 287 289 287 289 291 293 294 296 299 298 298 298 298 296 294 297 300 300 299 299 298 296 294 292 290 287 285 284 283 282 282 280 279 280 281 283 283 284 286 286 285 284
283 285 287 285 285 288 290 291 291 294 296 298 299 298 297 294 296 296 296 296 295 295 294 293 290 288 287 285 282 282 284 283 282 280 280 281 283 284 284 285 285 284 284
281 282 284 283 282 285 287 288 289 291 293 295 297 296 293 295 295 294 293 293 294 293 291 290 288 286 285 284 282 282 283 282 282 282 282 282 282 285 285 285 284 284 284
277 279 280 281 281 282 284 285 287 290 291 292 294 295 294 293 293 293 291 290 291 291 289 289 290 288 285 284 284 283 282 282 282 282 282 282 283 284 284 284 285 285 284
273 275 276 276 279 280 282 283 285 287 288 290 292 294 294 293 291 290 288 289 290 291 291 289 289 288 286 285 283 281 281 281 282 282 282 283 283 283 283 283 284 284 284
274 273 274 274 277 279 282 284 284 285 288 290 291 292 293 292 291 289 287 288 288 289 289 289 288 287 287 286 282 280 279 279 281 282 284 285 286 285 284 284 284 284 283
272 272 272 273 276 279 281 283 284 286 288 290 291 292 292 292 291 289 288 287 287 286 284 284 286 286 286 285 283 281 280 280 281 283 284 287 289 287 285 284 283 283 283
269 269 271 271 274 278 279 282 283 285 287 288 289 289 289 289 289 288 287 286 286 285 284 284 284 284 283 283 283 283 282 283 283 282 285 288 290 288 287 285 284 283 282
268 269 270 271 273 275 277 278 280 282 286 287 288 289 289 288 288 288 289 288 287 285 284 282 282 283 283 283 283 282 282 283 284 285 287 289 290 289 288 286 284 283 283
268 270 271 271 272 274 276 277 279 281 284 286 286 288 289 289 288 288 289 289 288 287 286 285 284 284 284 285 285 285 285 284 284 286 287 288 289 289 288 286 284 283 283
268 270 270 270 271 272 274 277 278 281 283 283 285 286 287 288 287 287 288 288 288 287 286 286 285 285 286 285 286 286 285 285 285 286 288 289 289 288 288 287 285 284 283
269 270 270 270 270 271 273 276 278 281 283 282 283 285 286 286 286 286 288 288 287 287 287 287 285 285 285 285 286 286 286 285 286 286 287 288 288 289 289 288 286 285 283
268 269 269 270 271 272 274 276 278 280 282 281 283 284 285 285 285 285 286 286 285 285 285 286 285 286 286 286 285 285 285 285 286 287 287 287 287 289 291 290 289 287 286
268 268 269 270 271 272 274 276 278 279 281 282 282 283 283 283 283 283 284 284 283 282 283 283 283 285 286 286 285 285 285 286 286 287 287 287 288 288 289 290 289 288 287
269 269 269 270 271 272 274 276 277 279 280 282 282 281 281 281 281 282 283 283 283 282 282 282 282 283 286 287 287 286 286 286 286 286 286 286 287 286 287 288 288 287 287
268 268 269 270 271 273 274 276 276 278 280 281 281 280 280 280 281 282 282 281 281 282 282 281 279 281 283 286 288 288 286 285 285 286 286 286 287 287 287 288 288 287 287
Height
5916 5915 5914 5913 5912 5911 5910 5908 5907 5906 5904 5903 5902 5901 5900 5899 5898 5897 5896 5896 5895 5894 5893 5893 5892 5891 5891 5891 5891 5891 5890 5890 5890 5889 5889 5889 5889 5889 5890 5890 5891 5890 5890
5917 5915 5914 5913 5912 5910 5909 5908 5907 5905 5904 5903 5902 5901 5899 5898 5897 5896 5895 5894 5893 5892 5891 5890 5890 5890 5889 5889 5889 5889 5888 5887 5887 5888 5887 5887 5887 5887 5887 5887 5887 5887 5887
5916 5915 5913 5912 5911 5910 5908 5907 5906 5904 5903 5902 5901 5900 5899 5897 5896 5895 5894 5893 5892 5890 5889 5888 5888 5887 5887 5887 5887 5887 5887 5886 5886 5886 5886 5885 5885 5884 5884 5883 5883 5883 5883
5916 5914 5913 5911 5910 5909 5907 5906 5904 5903 5902 5901 5900 5899 5898 5896 5895 5894 5893 5891 5890 5888 5887 5886 5885 5885 5885 5885 5885 5884 5884 5884 5884 5883 5883 5883 5882 5882 5882 5881 5880 5880 5879
5914 5913 5912 5910 5909 5907 5905 5904 5903 5901 5900 5899 5898 5897 5896 5895 5894 5892 5891 5890 5888 5887 5885 5884 5883 5883 5882 5882 5882 5882 5882 5881 5881 5881 5880 5880 5879 5878 5878 5878 5877 5876 5876
5913 5912 5910 5909 5907 5906 5904 5902 5901 5899 5898 5897 5896 5895 5894 5893 5892 5891 5889 5888 5887 5885 5883 5882 5881 5880 5880 5879 5879 5879 5878 5878 5878 5878 5877 5877 5876 5875 5874 5874 5873 5873 5872
5911 5910 5908 5907 5905 5904 5902 5900 5899 5897 5896 5895 5894 5893 5892 5891 5890 5889 5887 5886 5884 5883 5881 5880 5879 5878 5877 5877 5876 5875 5875 5875 5874 5874 5873 5873 5872 5871 5870 5870 5869 5869 5868
5909 5908 5906 5905 5903 5902 5900 5898 5896 5895 5893 5892 5891 5890 5889 5888 5887 5886 5885 5883 5882 5880 5879 5877 5876 5875 5875 5874 5873 5872 5871 5871 5870 5870 5869 5868 5867 5867 5866 5865 5864 5864 5863
5906 5905 5904 5902 5901 5899 5898 5896 5894 5892 5891 5889 5888 5887 5886 5885 5884 5883 5882 5880 5879 5878 5876 5874 5873 5872 5871 5870 5869 5868 5867 5866 5865 5865 5864 5863 5863 5862 5861 5860 5859 5859 5858
5903 5902 5900 5899 5898 5897 5895 5893 5892 5890 5888 5887 5886 5884 5883 5882 5881 5880 5878 5877 5875 5874 5873 5871 5870 5868 5867 5865 5864 5863 5862 5861 5861 5860 5859 5858 5857 5856 5855 5854 5853 5852 5851
5899 5898 5897 5896 5894 5893 5892 5890 5888 5887 5885 5884 5883 5881 5880 5878 5877 5876 5874 5873 5871 5870 5868 5867 5865 5864 5862 5861 5859 5858 5857 5856 5855 5854 5853 5853 5852 5850 5849 5848 5846 5845 5844
5895 5894 5893 5892 5890 5889 5888 5886 5885 5883 5882 5880 5879 5877 5876 5874 5873 5871 5870 5868 5867 5865 5863 5861 5860 5858 5857 5856 5854 5853 5851 5850 5850 5849 5847 5846 5845 5844 5842 5841 5839 5838 5837
5890 5889 5888 5887 5886 5885 5883 5882 5881 5879 5878 5876 5874 5872 5870 5869 5868 5866 5865 5863 5861 5859 5858 5856 5854 5852 5851 5849 5848 5847 5845 5844 5843 5842 5841 5839 5838 5836 5835 5833 5832 5831 5829
5884 5884 5883 5882 5881 5880 5878 5877 5876 5874 5873 5871 5869 5867 5866 5864 5863 5861 5859 5857 5855 5854 5852 5850 5848 5846 5844 5843 5842 5840 5839 5838 5836 5835 5833 5832 5830 5829 5827 5826 5824 5823 5821
5878 5878 5877 5876 5875 5874 5873 5871 5870 5869 5867 5865 5864 5862 5860 5858 5856 5854 5853 5851 5849 5847 5845 5843 5841 5839 5838 5836 5834 5833 5832 5830 5829 5827 5826 5824 5822 5820 5819 5817 5816 5814 5813
5872 5871 5870 5870 5869 5868 5867 5865 5864 5862 5861 5859 5857 5855 5853 5851 5849 5847 5845 5844 5842 5840 5838 5836 5834 5832 5830 5828 5827 5825 5824 5822 5821 5819 5818 5816 5814 5811 5810 5808 5807 5805 5804
5864 5863 5863 5862 5862 5861 5860 5859 5857 5856 5854 5852 5850 5848 5846 5844 5842 5840 5838 5836 5834 5832 5830 5828 5826 5824 5822 5820 5819 5817 5815 5814 5813 5811 5809 5808 5805 5803 5801 5799 5798 5796 5794
5856 5856 5855 5855 5854 5853 5852 5851 5849 5848 5846 5844 5843 5840 5838 5836 5834 5832 5830 5827 5825 5824 5821 5820 5818 5816 5814 5812 5810 5809 5807 5805 5804 5803 5801 5799 5796 5794 5792 5791 5789 5787 5785
5848 5847 5847 5846 5845 5845 5843 5842 5841 5839 5838 5836 5834 5832 5830 5828 5826 5823 5821 5819 5817 5815 5813 5811 5810 5808 5806 5804 5802 5800 5799 5797 5796 5794 5792 5790 5788 5786 5784 5782 5780 5778 5776
5838 5838 5837 5837 5836 5835 5834 5833 5832 5830 5829 5827 5826 5823 5821 5819 5817 5815 5813 5810 5808 5807 5805 5803 5801 5799 5797 5795 5794 5792 5790 5788 5787 5785 5783 5781 5779 5777 5774 5772 5770 5768 5766
5827 5827 5827 5827 5826 5825 5824 5823 5822 5821 5819 5818 5816 5814 5812 5810 5808 5806 5804 5802 5800 5798 5796 5795 5793 5791 5789 5787 5786 5784 5782 5780 5778 5776 5774 5772 5769 5767 5765 5762 5760 5758 5756
5817 5816 5816 5815 5815 5814 5814 5813 5812 5811 5809 5808 5807 5805 5803 5801 5799 5798 5796 5793 5791 5789 5788 5786 5784 5782 5781 5779 5777 5775 5773 5771 5769 5767 5764 5762 5760 5757 5755 5753 5750 5748 5746
5806 5805 5805 5804 5804 5803 5802 5802 5802 5801 5799 5798 5796 5795 5793 5791 5790 5788 5786 5784 5782 5781 5779 5777 5776 5774 5772 5770 5769 5766 5764 5762 5759 5757 5755 5753 5750 5748 5746 5743 5741 5738 5736
5795 5795 5795 5794 5794 5793 5792 5792 5791 5790 5789 5788 5786 5784 5783 5781 5780 5778 5776 5775 5773 5771 5770 5768 5767 5765 5763 5761 5759 5757 5755 5752 5750 5748 5746 5743 5741 5738 5736 5734 5732 5729 5726
5784 5784 5784 5784 5784 5783 5782 5782 5781 5780 5778 5777 5776 5774 5772 5771 5769 5768 5766 5764 5763 5762 5760 5759 5757 5755 5753 5751 5749 5747 5745 5742 5740 5737 5736 5733 5731 5729 5727 5725 5722 5720 5717
5774 5774 5774 5774 5774 5773 5772 5771 5770 5769 5768 5766 5764 5763 5761 5760 5759 5757 5756 5754 5753 5751 5750 5748 5746 5744 5743 5742 5739 5737 5735 5732 5730 5728 5726 5724 5722 5719 5717 5715 5712 5710 5708